Location: Cedar Falls
(42.5280°N, 92.4450°W)
Time: 03:20:55
(UTC-05:00)

NOSS 3-1 (C) - Visible Passes

Search period start: 31 October 2014 00:00
Search period end: 09 November 2014 23:00
Orbit: 891 x 1318 km, 63.4° (Epoch: 29 October)

Date Brightness Start Highest point End Pass type
(mag) Time Alt. Az. Time Alt. Az. Time Alt. Az.
31 Oct 5.5 03:59:14 23° N 04:01:28 26° NNE 04:07:50 10° E visible
31 Oct 4.0 05:46:41 14° NW 05:53:27 84° NE 06:01:33 10° SE visible
31 Oct 5.4 19:42:11 10° SE 19:42:19 10° SE 19:42:19 10° SE visible
31 Oct 5.8 21:29:38 10° SW 21:29:49 11° SW 21:29:49 11° SW visible
01 Nov 5.9 03:16:05 20° NNE 03:16:05 20° NNE 03:21:03 10° ENE visible
01 Nov 4.4 05:03:32 25° NNW 05:08:05 59° NE 05:15:59 10° SE visible
01 Nov 4.6 06:52:04 10° NW 06:58:51 36° WSW 07:06:02 10° S visible
01 Nov 4.7 20:44:37 10° SSW 20:47:12 27° SSW 20:47:12 27° SSW visible
02 Nov 6.4 01:33:03 12° NE 01:33:03 12° NE 01:34:05 10° ENE visible
02 Nov 4.9 03:20:31 35° N 03:22:35 42° NE 03:30:03 10° ESE visible
02 Nov 4.1 05:07:59 17° NW 05:13:49 55° WSW 05:21:38 10° SSE visible
02 Nov 4.1 19:00:05 10° S 19:04:32 36° SE 19:04:32 36° SE visible
02 Nov 5.6 20:50:30 10° WSW 20:52:01 18° WSW 20:52:01 18° WSW visible
03 Nov 5.4 02:37:38 30° NE 02:37:38 30° NE 02:43:45 10° E visible
03 Nov 3.9 04:25:07 36° NW 04:28:39 81° WSW 04:36:44 10° SSE visible
03 Nov 5.3 06:13:59 10° WNW 06:18:44 18° WSW 06:23:38 10° SW visible
03 Nov 4.5 18:16:11 10° SSE 18:20:44 23° ESE 18:21:47 22° E visible
03 Nov 4.2 20:04:52 10° SW 20:09:16 48° WSW 20:09:16 48° WSW visible
04 Nov 6.1 01:54:52 17° ENE 01:54:52 17° ENE 01:57:07 10° E visible
04 Nov 4.1 03:42:21 64° N 03:43:22 72° NE 03:51:24 10° SE visible
04 Nov 4.8 05:29:50 18° WNW 05:33:53 29° WSW 05:40:29 10° SSW visible
04 Nov 5.1 17:33:36 10° SE 17:36:03 13° ESE 17:38:34 10° E visible
04 Nov 3.3 19:19:38 10° SSW 19:25:40 82° ESE 19:26:25 70° ENE visible
04 Nov 5.8 21:12:14 10° W 21:13:54 17° WNW 21:13:54 17° WNW visible
05 Nov 4.9 02:59:42 43° E 02:59:42 43° E 03:05:40 10° ESE visible
05 Nov 4.3 04:47:12 39° W 04:48:55 44° WSW 04:56:26 10° S visible
05 Nov 3.6 18:34:49 10° SSW 18:40:36 51° ESE 18:43:28 30° ENE visible
05 Nov 4.8 20:26:04 10° WSW 20:30:55 34° NW 20:30:55 34° NW visible
06 Nov 6.0 02:17:09 20° E 02:17:09 20° E 02:19:34 10° ESE visible
06 Nov 4.0 04:04:39 62° SSW 04:04:39 62° SSW 04:11:48 10° SSE visible
06 Nov 5.5 05:52:09 12° W 05:53:39 13° WSW 05:56:53 10° SW visible
06 Nov 4.2 17:50:32 10° S 17:55:41 30° ESE 18:00:23 13° ENE visible
06 Nov 4.1 19:40:14 10° WSW 19:46:11 52° NW 19:47:50 42° N visible
06 Nov 6.2 21:34:40 10° WNW 21:35:17 12° WNW 21:35:17 12° WNW visible
07 Nov 5.0 03:22:09 38° SE 03:22:09 38° SE 03:26:42 10° SE visible
07 Nov 5.1 05:09:39 22° WSW 05:09:39 22° WSW 05:14:41 10° SSW visible
07 Nov 3.5 18:54:47 10° SW 19:00:50 79° NW 19:04:38 27° NNE visible
07 Nov 5.5 20:48:04 10° WNW 20:52:05 22° NW 20:52:05 22° NW visible
08 Nov 6.0 02:39:40 17° SE 02:39:40 17° SE 02:41:11 10° SE visible
08 Nov 5.1 04:27:10 26° SSW 04:27:10 26° SSW 04:31:03 10° S visible
08 Nov 3.4 18:09:43 10° SSW 18:15:40 67° ESE 18:21:20 14° NE visible
08 Nov 5.1 20:01:44 10° W 20:07:07 30° NW 20:08:46 27° N visible
09 Nov 5.7 03:44:41 19° S 03:44:41 19° S 03:46:43 10° S visible
09 Nov 4.0 17:25:08 10° S 17:30:41 40° ESE 17:36:40 10° NE visible
09 Nov 4.5 19:15:42 10° WSW 19:21:30 42° NW 19:25:22 22° NNE visible
09 Nov 6.0 21:10:40 10° NW 21:12:48 14° NNW 21:12:48 14° NNW visible
